[[{"header":{"parameterUnit":"m.s-1","parameterCategory":1,"la1":30.2991,"la2":30.254,"lo1":-89.0895,"lo2":-89.0444,"dy":0.0017,"dx":0.0017,"nx":28,"ny":28,"refTime":"2025-01-21T09:00:00:Z","depth":0,"parameterNumber":2,"parameterNumberName":"U-component_of_WINDS"},"data":[0,0,0,0,0,0,0,0,0,0,0,0,0,0,0,0,0,0,0,0,0,0,0,0,0,0,0,0,0,0,0,0,0,0,0,0,0,0,0,0,0,0,0,0,0,0,0,0,0,0,0,0,0,0,0,0,0,0,-3.4603,-3.4604,0,-3.4659,-3.466,-3.466,-3.4541,-3.4537,-3.4533,-3.453,-3.4589,-3.4594,-3.4599,0,0,0,0,0,0,0,0,0,0,0,0,0,-3.4393,-3.4398,-3.4603,-3.4604,-3.4604,-3.4659,-3.466,-3.4661,-3.4542,-3.4537,-3.4532,-3.4528,-3.4587,-3.4593,-3.4599,0,0,0,0,0,0,0,0,0,0,0,0,0,-3.4471,-3.4399,-3.4603,-3.4552,-3.4548,-3.4659,-3.466,-3.4661,-3.4543,-3.4537,-3.4531,-3.4526,-3.4585,-3.4593,-3.46,-3.4764,0,0,-3.4624,-3.4627,0,0,0,0,0,0,0,0,-3.4466,-3.4479,-3.4559,-3.4555,-3.4551,-3.4587,-3.4607,-3.4696,-3.4544,-3.4545,-3.453,-3.4523,-3.4593,-3.46,-3.4623,-3.4767,-3.4769,-3.4625,-3.4629,-3.4633,-3.4635,0,0,0,0,0,0,0,-3.4461,-3.4475,-3.4625,-3.456,-3.4555,-3.4526,-3.4531,-3.4624,-3.4601,-3.4544,-3.4536,-3.4544,-3.459,-3.4616,-3.4624,-3.477,-3.4624,-3.4631,-3.4636,-3.4639,-3.5051,-3.5057,0,0,0,0,0,0,-3.4462,-3.4472,-3.4623,-3.4627,-3.4494,-3.4535,-3.454,-3.4582,-3.4599,-3.4597,-3.4549,-3.4538,-3.4605,-3.4615,-3.4625,-3.4818,-3.4633,-3.464,-3.4644,-3.5045,-3.5052,-3.5059,0,0,0,0,0,0,-3.4458,-3.4477,-3.4621,-3.4547,-3.4563,-3.4544,-3.4592,-3.4586,-3.4611,-3.4603,-3.4598,-3.458,-3.4601,-3.4614,-3.473,-3.4819,-3.4643,-3.465,-3.5037,-3.5047,-3.5056,-3.5206,0,0,0,0,0,0,-3.4453,-3.4476,-3.4538,-3.4549,-3.4568,-3.4726,-3.4598,-3.4591,-3.4625,-3.4612,-3.4631,-3.4628,-3.4598,-3.4719,-3.4738,-3.4826,-3.4657,-3.5029,-3.5041,-3.5053,-3.5193,-3.522,-3.5242,0,0,0,0,0,-3.4446,-3.4579,-3.4542,-3.4561,-3.4645,-3.4731,-3.4742,-3.4704,-3.4633,-3.4695,-3.4689,-3.4627,-3.4806,-3.4732,-3.4752,-3.4844,-3.5023,-3.5038,-3.5052,-3.5182,-3.5214,-3.5242,0,0,0,0,0,0,-3.458,-3.458,-3.4539,-3.4679,-3.4706,-3.4711,-3.4788,-3.4739,-3.4787,-3.4772,-3.4723,-3.4728,-3.4854,-3.486,-3.4778,-3.5003,-3.4903,-3.4921,-3.4995,-3.5025,-3.5049,-3.5046,-3.4663,0,0,0,0,0,-3.4626,-3.4695,-3.4691,-3.4816,-3.4831,-3.4808,-3.4844,-3.4812,-3.4838,-3.4849,-3.4852,-3.4879,-3.4941,-3.4983,-3.504,-3.5193,-3.5195,-3.5266,-3.529,-3.531,-3.5328,-3.5409,-3.544,-3.5105,-3.5105,-3.5105,0,0,-3.4721,-3.473,-3.4777,-3.4843,-3.486,-3.4934,-3.4818,-3.4901,-3.4955,-3.4862,-3.4971,-3.4974,-3.5002,-3.5137,-3.5197,-3.5146,-3.542,-3.5328,-3.5344,-3.5351,-3.5427,-3.5458,-3.5486,-3.5115,-3.5113,-3.5112,0,0,-3.4934,-3.4947,-3.5052,-3.5071,-3.5098,-3.5081,-3.5106,-3.5118,-3.5117,-3.5226,-3.5157,-3.522,-3.5328,-3.5351,-3.5376,-3.5596,-3.5541,-3.5615,-3.5744,-3.5823,-3.585,-3.5873,-3.5952,-3.598,-3.5632,-3.5633,-3.5633,0,-3.505,-3.5157,-3.5113,-3.52,-3.5231,-3.5149,-3.5255,-3.5275,-3.532,-3.5343,-3.5286,-3.5419,-3.5432,-3.5571,-3.5624,-3.5648,-3.5675,-3.5614,-3.5849,-3.5872,-3.5893,-3.5968,-3.5997,-3.5642,-3.5641,-3.564,-3.5639,0,-3.5299,-3.5375,-3.5456,-3.5501,-3.5541,-3.5637,-3.5607,-3.5653,-3.5617,-3.5607,-3.5719,-3.5731,-3.5788,-3.5818,-3.5785,-3.5953,-3.5921,-3.5857,-3.5755,-3.5935,-3.6004,-3.6032,-3.5655,-3.5651,-3.5649,-3.5646,0,0,-3.5599,-3.5616,-3.5647,-3.5666,-3.5688,-3.5746,-3.5839,-3.5894,-3.5935,-3.5968,-3.6044,-3.6137,-3.6078,-3.6107,-3.6075,-3.6144,-3.6318,-3.6072,-3.6072,-3.6118,-3.6504,-3.6553,-3.6587,-3.6281,-3.6286,-3.629,-3.6502,0,-3.581,-3.5969,-3.593,-3.6088,-3.6157,-3.6079,-3.6159,-3.6182,-3.6175,-3.6232,-3.6223,-3.629,-3.6207,-3.6224,-3.6289,-3.6283,-3.6395,-3.6267,-3.6352,-3.6356,-3.6349,-3.6623,-3.6675,-3.6874,-3.6529,-3.6533,-3.6537,0,-3.6077,-3.612,-3.6284,-3.6295,-3.6322,-3.6396,-3.6443,-3.6499,-3.6523,-3.6512,-3.6545,-3.6498,-3.6589,-3.6486,-3.6611,-3.6525,-3.6557,-3.6559,-3.6566,-3.6573,-3.6458,-3.6639,-3.6937,-3.6967,-3.6579,-3.6575,-3.6572,0,-3.6281,-3.6379,-3.649,-3.6508,-3.6523,-3.6576,-3.6585,-3.6603,-3.6639,-3.668,-3.6703,-3.6755,-3.6783,-3.6824,-3.6793,-3.672,-3.6924,-3.6817,-3.6918,-3.6919,-3.6965,-3.6963,-3.7274,-3.6985,-3.6984,-3.6984,-3.6983,0,-3.6521,-3.6625,-3.6581,-3.665,-3.6763,-3.6718,-3.6832,-3.6831,-3.6848,-3.6915,-3.685,-3.6914,-3.6869,-3.6929,-3.6905,-3.7013,-3.7026,-3.702,-3.7013,-3.7027,-3.7028,-3.7048,-3.7034,-3.6992,-3.699,-3.6988,-3.6987,0,-3.6768,-3.6743,-3.6859,-3.6863,-3.6866,-3.695,-3.6954,-3.7017,-3.7004,-3.7089,-3.7107,-3.7086,-3.7154,-3.7126,-3.7198,-3.7182,-3.732,-3.7294,-3.7312,-3.7306,-3.7408,-3.7399,-3.7744,-3.7787,-3.7469,-3.7473,-3.7475,0,-3.6923,-3.7001,-3.7014,-3.7053,-3.7067,-3.7132,-3.7168,-3.7125,-3.7165,-3.7198,-3.7258,-3.7319,-3.7366,-3.7478,-3.747,-3.7524,-3.7499,-3.7616,-3.7507,-3.7518,-3.7502,-3.7498,-3.7505,-3.7639,-3.7642,-3.7645,-3.7648,0,-3.7202,-3.7185,-3.7239,-3.7289,-3.7333,-3.7371,-3.7402,-3.7439,-3.7397,-3.7446,-3.7514,-3.755,-3.7623,-3.7685,-3.7733,-3.7741,-3.7689,-3.7682,-3.7708,-3.7724,-3.7731,-3.7729,-3.7373,-3.7675,-3.7672,-3.767,-3.7668,-3.7667,-3.7409,-3.7474,-3.7493,-3.7555,-3.7574,-3.7604,-3.7664,-3.7658,-3.7714,-3.7769,-3.774,-3.782,-3.784,-3.7899,-3.7915,-3.7976,-3.7931,-3.7969,-3.7978,-3.7989,-3.8002,-3.7721,-3.7985,-3.7984,-3.7983,-3.7983,-3.7982,0,-3.7684,-3.7692,-3.775,-3.7795,-3.7844,-3.7788,-3.782,-3.7865,-3.7935,-3.7959,-3.8006,-3.8084,-3.8144,-3.814,-3.8194,-3.8244,-3.8221,-3.826,-3.8257,-3.826,-3.804,-3.8012,-3.8278,-3.8278,-3.8278,-3.8278,-3.8278,-3.8278,-3.7834,-3.7942,-3.7927,-3.8044,-3.805,-3.8127,-3.815,-3.8178,-3.8196,-3.8286,-3.8335,-3.8332,-3.8344,-3.8399,-3.8451,-3.8448,-3.8472,-3.852,-3.8509,-3.8304,-3.8275,-3.8247,-3.8221,-3.8526,-3.8526,-3.8723,-3.8725,-3.8726]},{"header":{"parameterUnit":"m.s-1","parameterCategory":1,"la1":30.2991,"la2":30.254,"lo1":-89.0895,"lo2":-89.0444,"dy":0.0017,"dx":0.0017,"nx":28,"ny":28,"refTime":"2025-01-21T09:00:00:Z","depth":0,"parameterNumber":3,"parameterNumberName":"V-component_of_WINDS"},"data":[0,0,0,0,0,0,0,0,0,0,0,0,0,0,0,0,0,0,0,0,0,0,0,0,0,0,0,0,0,0,0,0,0,0,0,0,0,0,0,0,0,0,0,0,0,0,0,0,0,0,0,0,0,0,0,0,0,0,-6.2763,-6.2764,0,-6.2815,-6.2816,-6.2816,-6.2709,-6.2705,-6.2702,-6.2698,-6.2748,-6.2753,-6.2757,0,0,0,0,0,0,0,0,0,0,0,0,0,-6.2566,-6.257,-6.2763,-6.2764,-6.2764,-6.2815,-6.2816,-6.2816,-6.2709,-6.2705,-6.2701,-6.2697,-6.2747,-6.2752,-6.2758,0,0,0,0,0,0,0,0,0,0,0,0,0,-6.2638,-6.2571,-6.2763,-6.2717,-6.2713,-6.2815,-6.2816,-6.2817,-6.271,-6.2705,-6.2699,-6.2695,-6.2745,-6.2752,-6.2758,-6.2906,0,0,-6.2779,-6.2782,0,0,0,0,0,0,0,0,-6.2634,-6.2645,-6.2723,-6.272,-6.2716,-6.275,-6.2764,-6.2847,-6.2711,-6.2711,-6.2698,-6.2692,-6.2753,-6.2759,-6.278,-6.2908,-6.291,-6.278,-6.2784,-6.2787,-6.2789,0,0,0,0,0,0,0,-6.2629,-6.2642,-6.2783,-6.2724,-6.272,-6.2692,-6.2697,-6.2779,-6.2761,-6.2711,-6.2703,-6.2711,-6.275,-6.2774,-6.278,-6.2911,-6.278,-6.2786,-6.279,-6.2793,-6.3161,-6.3166,0,0,0,0,0,0,-6.2631,-6.2639,-6.2782,-6.2785,-6.2662,-6.27,-6.2705,-6.2745,-6.276,-6.2757,-6.2715,-6.2706,-6.2764,-6.2772,-6.2782,-6.2954,-6.2787,-6.2794,-6.2798,-6.3155,-6.3162,-6.3168,0,0,0,0,0,0,-6.2627,-6.2644,-6.278,-6.271,-6.2725,-6.2709,-6.2754,-6.2748,-6.2772,-6.2763,-6.2759,-6.2743,-6.2761,-6.2772,-6.2876,-6.2954,-6.2797,-6.2803,-6.3148,-6.3157,-6.3165,-6.33,0,0,0,0,0,0,-6.2622,-6.2644,-6.2701,-6.2712,-6.2729,-6.2875,-6.2759,-6.2753,-6.2784,-6.2772,-6.2788,-6.2786,-6.2757,-6.2866,-6.2882,-6.2961,-6.2808,-6.3141,-6.3152,-6.3162,-6.3289,-6.3312,-6.3332,0,0,0,0,0,-6.2615,-6.2737,-6.2704,-6.2722,-6.2801,-6.2879,-6.2889,-6.2855,-6.2791,-6.2847,-6.2841,-6.2785,-6.2943,-6.2877,-6.2895,-6.2977,-6.3136,-6.3149,-6.3161,-6.3279,-6.3308,-6.3332,0,0,0,0,0,0,-6.2734,-6.2737,-6.2701,-6.2831,-6.2856,-6.2861,-6.2931,-6.2887,-6.293,-6.2916,-6.2871,-6.2876,-6.2987,-6.2992,-6.2919,-6.3119,-6.3028,-6.3045,-6.3112,-6.3139,-6.316,-6.3156,-6.2814,0,0,0,0,0,-6.2776,-6.2841,-6.2839,-6.2953,-6.2968,-6.2948,-6.2981,-6.2952,-6.2976,-6.2986,-6.2987,-6.3011,-6.3066,-6.3103,-6.3153,-6.3289,-6.329,-6.3354,-6.3375,-6.3393,-6.3408,-6.3478,-6.3506,-6.321,-6.3209,-6.3209,0,0,-6.2861,-6.2871,-6.2915,-6.2978,-6.2994,-6.306,-6.2957,-6.3033,-6.3081,-6.2996,-6.3094,-6.3097,-6.312,-6.324,-6.3293,-6.3248,-6.349,-6.341,-6.3424,-6.3429,-6.3494,-6.3522,-6.3547,-6.3218,-6.3217,-6.3215,0,0,-6.3052,-6.3067,-6.3163,-6.3181,-6.3206,-6.3192,-6.3215,-6.3227,-6.3226,-6.3323,-6.3261,-6.3317,-6.3413,-6.3431,-6.3454,-6.365,-6.3599,-6.3667,-6.3781,-6.385,-6.3874,-6.3894,-6.3962,-6.3988,-6.3682,-6.3683,-6.3683,0,-6.3155,-6.3254,-6.3217,-6.3297,-6.3325,-6.3253,-6.3348,-6.3367,-6.3407,-6.3428,-6.3377,-6.3494,-6.3505,-6.3627,-6.3675,-6.3696,-6.372,-6.3665,-6.3874,-6.3894,-6.3912,-6.3977,-6.4003,-6.3691,-6.369,-6.3689,-6.3688,0,-6.3379,-6.3449,-6.3523,-6.3564,-6.3601,-6.3688,-6.3662,-6.3704,-6.3672,-6.3663,-6.3762,-6.3772,-6.3822,-6.3849,-6.3819,-6.3967,-6.3938,-6.3881,-6.3789,-6.3949,-6.4009,-6.4033,-6.3702,-6.3699,-6.3697,-6.3695,0,0,-6.3646,-6.3665,-6.3693,-6.371,-6.3733,-6.3785,-6.3868,-6.3917,-6.3953,-6.3983,-6.405,-6.4132,-6.4079,-6.4105,-6.4075,-6.4137,-6.4289,-6.4071,-6.4071,-6.411,-6.445,-6.4492,-6.4521,-6.4256,-6.426,-6.4264,-6.4448,0,-6.3833,-6.3977,-6.3945,-6.4086,-6.4148,-6.408,-6.4152,-6.4173,-6.4166,-6.4217,-6.4208,-6.4267,-6.4194,-6.4208,-6.4265,-6.4258,-6.4356,-6.4245,-6.4315,-6.4319,-6.431,-6.4553,-6.4597,-6.477,-6.4471,-6.4475,-6.4478,0,-6.4071,-6.411,-6.4258,-6.4269,-6.4294,-6.4359,-6.4401,-6.4451,-6.4472,-6.4463,-6.4491,-6.445,-6.453,-6.4438,-6.4547,-6.4471,-6.4498,-6.4499,-6.4505,-6.4509,-6.4407,-6.4562,-6.4825,-6.4851,-6.4515,-6.4512,-6.4509,0,-6.4248,-6.4338,-6.4438,-6.4455,-6.4471,-6.4518,-6.4526,-6.4542,-6.4574,-6.461,-6.4629,-6.4675,-6.4699,-6.4734,-6.4705,-6.4642,-6.4818,-6.4724,-6.4811,-6.4811,-6.485,-6.4847,-6.5119,-6.487,-6.487,-6.4869,-6.4869,0,-6.446,-6.4552,-6.4517,-6.4578,-6.4679,-6.4641,-6.4741,-6.4741,-6.4756,-6.4815,-6.4758,-6.4814,-6.4773,-6.4825,-6.4803,-6.4895,-6.4907,-6.49,-6.4893,-6.4905,-6.4905,-6.4921,-6.4907,-6.4876,-6.4875,-6.4873,-6.4872,0,-6.4675,-6.4656,-6.4759,-6.4765,-6.4769,-6.4843,-6.4847,-6.4903,-6.4892,-6.4966,-6.4981,-6.4964,-6.5021,-6.4997,-6.5058,-6.5043,-6.516,-6.5138,-6.5153,-6.5147,-6.5234,-6.5226,-6.5524,-6.556,-6.529,-6.5292,-6.5295,0,-6.481,-6.488,-6.4893,-6.4929,-6.4942,-6.5,-6.5031,-6.4996,-6.5031,-6.506,-6.5112,-6.5165,-6.5205,-6.5301,-6.5292,-6.5338,-6.5315,-6.5417,-6.5322,-6.533,-6.5314,-6.531,-6.5316,-6.5435,-6.5438,-6.5441,-6.5443,0,-6.5052,-6.5039,-6.5087,-6.5133,-6.5172,-6.5206,-6.5234,-6.5266,-6.5232,-6.5274,-6.5333,-6.5364,-6.5426,-6.5479,-6.5519,-6.5526,-6.5479,-6.5473,-6.5495,-6.5507,-6.5512,-6.5509,-6.5204,-6.5466,-6.5464,-6.5462,-6.5461,-6.546,-6.523,-6.5288,-6.5306,-6.5361,-6.5379,-6.5407,-6.5459,-6.5455,-6.5503,-6.5552,-6.5528,-6.5596,-6.5613,-6.5662,-6.5676,-6.5727,-6.5687,-6.5719,-6.5727,-6.5735,-6.5746,-6.5506,-6.5734,-6.5734,-6.5733,-6.5733,-6.5732,0,-6.5467,-6.5475,-6.5527,-6.5569,-6.5612,-6.5565,-6.5593,-6.5632,-6.5693,-6.5714,-6.5755,-6.5822,-6.5872,-6.5868,-6.5914,-6.5956,-6.5935,-6.5969,-6.5965,-6.5967,-6.578,-6.5756,-6.5985,-6.5985,-6.5985,-6.5985,-6.5985,-6.5985,-6.5595,-6.569,-6.5679,-6.5781,-6.5788,-6.5855,-6.5875,-6.59,-6.5916,-6.5994,-6.6036,-6.6033,-6.6043,-6.6089,-6.6133,-6.613,-6.6149,-6.6191,-6.618,-6.6005,-6.598,-6.5956,-6.5933,-6.6195,-6.6196,-6.6361,-6.6363,-6.6364]}]]